Location: Newark
(45.9456°N, 15.4064°E)
Time: 18:00:24
(UTC+00:00)

SR - Visible Passes

Search period start: 29 January 2020 00:00
Search period end: 08 February 2020 00:00
Orbit: 574 x 882 km, 66.7° (Epoch: 28 January)

Date Brightness Start Highest point End Pass type
(mag) Time Alt. Az. Time Alt. Az. Time Alt. Az.
29 Jan ? 02:53:19 16° NNE 02:54:03 17° NNE 02:57:28 10° ENE visible
29 Jan ? 04:32:45 15° NNW 04:37:25 60° NE 04:42:30 10° SE visible
30 Jan ? 02:05:19 11° NE 02:05:19 11° NE 02:05:45 10° NE visible
30 Jan ? 03:44:44 22° N 03:47:29 35° NE 03:52:15 10° ESE visible
30 Jan ? 05:24:31 10° NW 05:29:43 43° WSW 05:34:28 10° S visible
31 Jan ? 02:56:51 23° NNE 02:57:20 23° NE 03:01:31 10° E visible
31 Jan ? 04:36:17 20° NW 04:40:11 82° WSW 04:45:15 10° SSE visible
01 Feb ? 02:09:03 13° NE 02:09:03 13° NE 02:10:18 10° ENE visible
01 Feb ? 03:48:30 37° N 03:50:26 56° NE 03:55:28 10° SE visible
01 Feb ? 05:27:57 11° WNW 05:32:05 24° WSW 05:36:04 10° SSW visible
01 Feb ? 18:17:18 10° SSE 18:17:19 10° SSE 18:17:19 10° SSE visible
02 Feb ? 03:00:50 33° NE 03:00:50 33° NE 03:05:10 10° ESE visible
02 Feb ? 04:40:18 27° WNW 04:42:45 46° WSW 04:47:31 10° S visible
02 Feb ? 17:30:07 10° SE 17:30:23 11° SE 17:30:23 11° SE visible
02 Feb ? 19:08:04 10° SSW 19:09:54 21° SSW 19:09:54 21° SSW visible
03 Feb ? 02:13:19 14° ENE 02:13:19 14° ENE 02:14:23 10° E visible
03 Feb ? 03:52:48 76° NW 03:53:13 86° WSW 03:58:15 10° SSE visible
03 Feb ? 05:32:16 10° WNW 05:34:18 13° WSW 05:36:28 10° SW visible
03 Feb ? 18:18:54 10° S 18:22:57 36° SSE 18:22:57 36° SSE visible
03 Feb ? 20:01:01 10° WSW 20:02:27 17° WSW 20:02:27 17° WSW visible
04 Feb ? 03:05:26 34° ESE 03:05:26 34° ESE 03:08:25 10° SE visible
04 Feb ? 04:44:54 25° WSW 04:45:09 25° WSW 04:49:12 10° SSW visible
04 Feb ? 17:30:29 10° SSE 17:35:02 24° ESE 17:35:55 23° E visible
04 Feb ? 19:10:48 10° SW 19:15:25 53° WSW 19:15:25 53° WSW visible
05 Feb ? 03:57:41 33° SSW 03:57:41 33° SSW 04:00:34 10° S visible
05 Feb ? 16:43:32 10° SE 16:45:51 12° E 16:48:11 10° ENE visible
05 Feb ? 18:21:07 10° SSW 18:26:59 72° ESE 18:28:16 54° ENE visible
05 Feb ? 20:04:38 10° W 20:07:46 23° WNW 20:07:46 23° WNW visible
06 Feb ? 03:10:35 14° SSE 03:10:35 14° SSE 03:11:15 10° SSE visible
06 Feb ? 17:32:00 10° S 17:37:27 41° ESE 17:40:59 20° NE visible
06 Feb ? 19:13:59 10° WSW 19:19:36 43° NW 19:20:28 40° NNW visible
07 Feb ? 16:43:40 10° SSE 16:48:06 23° ESE 16:52:35 10° ENE visible
07 Feb ? 18:23:49 10° SW 18:29:43 71° NW 18:33:01 27° NNE visible
07 Feb ? 20:08:39 10° W 20:12:29 20° NW 20:12:29 20° NW visible
